Kremmling, CO

3:07 AM MST on November 15, 2019 (GMT -0700)
Kremmling

Weather History for K20V - October, 2019

Change the Weather History Date:

Friday, October 18, 2019

  Actual Average Record
Temperature  
Mean Temperature 34 °F -  
Max Temperature 48 °F - 75 °F (2003)
Min Temperature 21 °F - 15 °F (2008)
Degree Days  
Heating Degree Days 30    
Month to date heating degree days 414  
Cooling Degree Days 0    
Month to date cooling degree days 0  
Moisture  
Dew Point 23 °F    
Average Humidity 67    
Maximum Humidity 100    
Minimum Humidity 31    
Precipitation  
Precipitation 0.00 in - 0.14 in (2004)
Snow  
Snow 0.00 in - - ()
Snow Depth 0.00 in    
Sea Level Pressure  
Sea Level Pressure 29.91 in    
Wind  
Wind Speed 3 mph ()    
Max Wind Speed 14 mph    
Max Gust Speed 21 mph    
Visibility 9.2 miles    
Events Rain , Snow    
T = Trace of Precipitation, MM = Missing Value Source: Averaged Metar Reports

Daily Weather History Graph

Daily Weather History Graph

Search for Another Location

Airport or City:

Astronomy

Oct. 18, 2019 Rise Set
Actual Time 7:18 AM MDT 6:21 PM MDT
Civil Twilight 6:51 AM MDT 6:49 PM MDT
Nautical Twilight 6:20 AM MDT 7:20 PM MDT
Astronomical Twilight 5:48 AM MDT 7:51 PM MDT
Moon 9:40 PM MDT (10/18) 11:54 AM MDT (10/18)
Length of Visible Light 11h 57m
Length of Day
11h 02m
Waning Gibbous, 78% of the Moon is Illuminated
Oct 18
Waning Gibbous
Oct 21
Last Quarter
Oct 27
New
Nov 4
First Quarter
Nov 12
Full

Hourly Weather History & Observations

Time (MDT) Temp. Windchill Dew Point Humidity Pressure Visibility Wind Dir Wind Speed Gust Speed Precip Events Conditions
12:12 AM 33.8 °F 29.6 °F 14.0 °F 44% 29.81 in 10.0 mi SE 4.6 mph - N/A   Clear
12:34 AM 33.8 °F 28.6 °F 14.0 °F 44% 29.80 in 10.0 mi ESE 5.8 mph - N/A   Clear
12:52 AM 33.8 °F - 17.6 °F 52% 29.80 in 10.0 mi Calm Calm - N/A   Clear
1:12 AM 33.8 °F - 15.8 °F 48% 29.79 in 10.0 mi Calm Calm - N/A   Clear
1:30 AM 32.0 °F - 17.6 °F 55% 29.80 in 10.0 mi Calm Calm - N/A   Scattered Clouds
1:52 AM 32.0 °F - 17.6 °F 55% 29.80 in 10.0 mi Calm Calm - N/A   Scattered Clouds
2:12 AM 30.2 °F 24.3 °F 14.0 °F 51% 29.80 in 10.0 mi East 5.8 mph - N/A   Clear
2:30 AM 30.2 °F 26.7 °F 14.0 °F 51% 29.80 in 10.0 mi NE 3.5 mph - N/A   Clear
2:54 AM 30.2 °F - 14.0 °F 51% 29.80 in 10.0 mi Calm Calm - N/A   Clear
3:12 AM 30.2 °F - 17.6 °F 60% 29.79 in 10.0 mi Calm Calm - N/A   Clear
3:30 AM 28.4 °F 24.6 °F 15.8 °F 59% 29.78 in 10.0 mi North 3.5 mph - N/A   Clear
3:54 AM 26.6 °F - 15.8 °F 64% 29.78 in 10.0 mi Calm Calm - N/A   Clear
4:12 AM 30.2 °F 26.7 °F 15.8 °F 55% 29.78 in 10.0 mi ESE 3.5 mph - N/A   Clear
4:30 AM 30.2 °F - 17.6 °F 60% 29.78 in 10.0 mi Calm Calm - N/A   Clear
4:54 AM 26.6 °F - 15.8 °F 64% 29.77 in 10.0 mi Calm Calm - N/A   Clear
5:12 AM 28.4 °F - 17.6 °F 64% 29.78 in 10.0 mi Calm Calm - N/A   Scattered Clouds
5:30 AM 30.2 °F 23.4 °F 15.8 °F 55% 29.79 in 10.0 mi SE 6.9 mph - N/A   Scattered Clouds
5:54 AM 30.2 °F 26.7 °F 19.4 °F 64% 29.78 in 10.0 mi ENE 3.5 mph - N/A   Mostly Cloudy
6:12 AM 30.2 °F 25.4 °F 19.4 °F 64% 29.78 in 10.0 mi ESE 4.6 mph - N/A   Scattered Clouds
6:30 AM 33.8 °F 29.6 °F 21.2 °F 60% 29.80 in 10.0 mi ESE 4.6 mph - N/A   Mostly Cloudy
6:54 AM 33.8 °F - 23.0 °F 65% 29.83 in 10.0 mi Calm Calm - N/A Rain Light Rain
7:12 AM 37.4 °F 33.8 °F 28.4 °F 70% 29.83 in 10.0 mi South 4.6 mph - N/A   Drizzle
7:30 AM 35.6 °F 32.8 °F 28.4 °F 75% 29.84 in 10.0 mi ESE 3.5 mph - N/A Rain Light Rain
7:53 AM 35.6 °F - 30.2 °F 81% 29.85 in 10.0 mi Calm Calm - N/A   Light Drizzle
8:12 AM 37.4 °F 34.9 °F 32.0 °F 81% 29.85 in 10.0 mi SE 3.5 mph - N/A   Overcast
8:30 AM 37.4 °F - 30.2 °F 75% 29.86 in 10.0 mi Calm Calm - N/A   Overcast
8:54 AM 35.6 °F 31.7 °F 32.0 °F 87% 29.87 in 10.0 mi West 4.6 mph - N/A Rain Light Rain
9:12 AM 35.6 °F 31.7 °F 32.0 °F 87% 29.89 in 10.0 mi North 4.6 mph - N/A Rain Light Rain
9:30 AM 35.6 °F - 33.8 °F 93% 29.90 in 7.0 mi Calm Calm - N/A Rain Light Rain
9:48 AM 33.8 °F - 32.0 °F 93% 29.92 in 3.0 mi Calm Calm - N/A Snow Snow
10:12 AM 33.8 °F 30.8 °F 32.0 °F 93% 29.93 in 2.0 mi SSE 3.5 mph - N/A   Overcast
10:30 AM 33.8 °F 30.8 °F 33.8 °F 100% 29.94 in 0.5 mi North 3.5 mph - N/A Snow Snow
10:48 AM 33.8 °F - 33.8 °F 100% 29.94 in 0.5 mi Calm Calm - N/A Snow Snow
11:12 AM 33.8 °F - 33.8 °F 100% 29.94 in 1.0 mi Calm Calm - N/A Snow Light Snow
11:30 AM 33.8 °F 30.8 °F 33.8 °F 100% 29.94 in 1.5 mi SSE 3.5 mph - N/A Snow Light Snow
11:48 AM 33.8 °F - 33.8 °F 100% 29.96 in 10.0 mi Calm Calm - N/A   Overcast
12:12 PM 33.8 °F - 33.8 °F 100% 29.96 in 7.0 mi Calm Calm - N/A Snow Light Snow
12:30 PM 35.6 °F 32.8 °F 32.0 °F 87% 29.94 in 10.0 mi ESE 3.5 mph - N/A   Overcast
12:48 PM 37.4 °F - 33.8 °F 87% 29.94 in 10.0 mi Calm Calm - N/A   Overcast
1:12 PM 37.4 °F 34.9 °F 32.0 °F 81% 29.93 in 10.0 mi SSE 3.5 mph - N/A   Overcast
1:30 PM 37.4 °F 34.9 °F 32.0 °F 81% 29.93 in 10.0 mi ESE 3.5 mph - N/A   Mostly Cloudy
1:48 PM 41.0 °F 37.1 °F 32.0 °F 70% 29.92 in 10.0 mi South 5.8 mph - N/A   Scattered Clouds
2:12 PM 44.6 °F 41.4 °F 30.2 °F 57% 29.92 in 10.0 mi West 5.8 mph - N/A   Clear
2:30 PM 44.6 °F 42.2 °F 30.2 °F 57% 29.92 in 10.0 mi North 4.6 mph - N/A   Clear
2:48 PM 48.2 °F - 19.4 °F 32% 29.93 in 10.0 mi WNW 11.5 mph 20.7 mph N/A   Clear
3:12 PM 48.2 °F - 19.4 °F 32% 29.93 in 10.0 mi West 10.4 mph 17.3 mph N/A   Clear
3:30 PM 48.2 °F - 19.4 °F 32% 29.94 in 10.0 mi NW 10.4 mph - N/A   Clear
3:54 PM 46.4 °F 40.7 °F 21.2 °F 37% 29.94 in 10.0 mi North 12.7 mph 16.1 mph N/A   Clear
4:12 PM 46.4 °F 42.9 °F 19.4 °F 34% 29.96 in 10.0 mi NW 6.9 mph - N/A   Clear
4:30 PM 42.8 °F 35.8 °F 19.4 °F 39% 29.96 in 10.0 mi NNW 13.8 mph 17.3 mph N/A   Clear
4:54 PM 41.0 °F 33.5 °F 21.2 °F 45% 29.96 in 10.0 mi NNW 13.8 mph - N/A   Scattered Clouds
5:12 PM 42.8 °F 36.6 °F 19.4 °F 39% 29.97 in 10.0 mi WNW 11.5 mph - N/A   Scattered Clouds
5:30 PM 42.8 °F 38.6 °F 19.4 °F 39% 29.97 in 10.0 mi WNW 6.9 mph - N/A   Clear
5:54 PM 39.2 °F 33.0 °F 21.2 °F 49% 29.97 in 10.0 mi NNW 9.2 mph 16.1 mph N/A   Scattered Clouds
6:13 PM 37.4 °F 32.1 °F 23.0 °F 56% 29.97 in 10.0 mi NNW 6.9 mph - N/A   Clear
6:30 PM 35.6 °F 28.0 °F 23.0 °F 60% 29.98 in 10.0 mi NNW 10.4 mph 16.1 mph N/A   Clear
6:53 PM 35.6 °F 29.2 °F 23.0 °F 60% 29.98 in 10.0 mi NNW 8.1 mph - N/A   Clear
7:12 PM 35.6 °F 29.9 °F 23.0 °F 60% 29.98 in 10.0 mi NW 6.9 mph - N/A   Clear
7:30 PM 35.6 °F 29.9 °F 23.0 °F 60% 30.00 in 10.0 mi WNW 6.9 mph - N/A   Clear
7:53 PM 33.8 °F 27.7 °F 21.2 °F 60% 30.01 in 10.0 mi West 6.9 mph - N/A   Clear
8:11 PM 33.8 °F 30.8 °F 21.2 °F 60% 30.01 in 10.0 mi SW 3.5 mph - N/A   Clear
8:29 PM 32.0 °F 28.7 °F 23.0 °F 69% 30.02 in 10.0 mi WNW 3.5 mph - N/A   Clear
8:53 PM 32.0 °F - 21.2 °F 64% 30.02 in 10.0 mi Calm Calm - N/A   Clear
9:13 PM 30.2 °F - 23.0 °F 75% 30.02 in 10.0 mi Calm Calm - N/A   Clear
9:31 PM 30.2 °F 25.4 °F 23.0 °F 75% 30.03 in 10.0 mi North 4.6 mph - N/A   Clear
9:49 PM 30.2 °F - 21.2 °F 69% 30.03 in 10.0 mi Calm Calm - N/A   Clear
10:12 PM 26.6 °F - 23.0 °F 86% 30.03 in 10.0 mi Calm Calm - N/A   Clear
10:30 PM 24.8 °F - 21.2 °F 86% 30.04 in 10.0 mi Calm Calm - N/A   Clear
10:54 PM 26.6 °F - 21.2 °F 80% 30.04 in 10.0 mi Calm Calm - N/A   Clear
11:12 PM 26.6 °F 22.6 °F 21.2 °F 80% 30.04 in 10.0 mi North 3.5 mph - N/A   Clear
11:30 PM 23.0 °F - 21.2 °F 93% 30.06 in 10.0 mi Calm Calm - N/A   Clear
11:54 PM 23.0 °F - 19.4 °F 86% 30.06 in 10.0 mi Calm Calm - N/A   Clear